sat.trackr.live / text

‹ back to catalog

STARLINK-31827

NORAD 59727 · 2024-088V

PAYLOAD ACTIVE UNKNOWN

§ Identity

Operator
Country
US
Launch date
2024-05-10
Launch site
AFWTR
Launch vehicle
Mass (kg)
RCS (m²)

Purposes: comms

External: N2YO · Heavens-Above · Gunter

§ Orbital elements

Epoch: 2026-05-24T21:00:44.491680Z

Period
94.01 min
Inclination
53.1600°
Eccentricity
0.0001211
Mean motion
15.31702549 rev/d
Perigee alt
469.9 km
Apogee alt
471.6 km
Semi-major
6,848.9 km
B*
1.3244e-5
RAAN
146.2378°
Arg perigee
84.8485°
Mean anomaly
275.2655°
Rev number
11,546

§ Raw data

STARLINK-318271 59727U 24088V   26144.87551495  .00000046  00000+0  13244-4 0  99902 59727  53.1600 146.2378 0001211  84.8485 275.2655 15.31702549115466

JSON: /api/v1/satellites/59727 · /tle

For live sub-satellite position, see the globe view (requires WebGL).

§ Visibility from observer

Set your observer location to see the next 7 days of passes ≥ 10°. The values pass through the URL so the page stays shareable.

No JS? Fill the form by hand. The geolocation button needs JavaScript.